Location: Kalberh�ni
(46.4610°N, 7.2453°E)
Time: 06:05:11
(UTC+00:00)

Cosmos 1606 Rocket - Pass Details

Date: 26 October 2021
Orbit: 601 x 633 km, 82.5° (Epoch: 30 November)

Event Time Altitude Azimuth Distance (km) Brightness Sun altitude
Rises 05:17:27 0° 353° (N) 2,907 6.8 -8.6°
Reaches altitude 10° 05:19:44 10° 357° (N) 1,991 6.0 -8.2°
Maximum altitude 05:24:06 63° 79° (ENE) 690 4.1 -7.5°
Drops below altitude 10° 05:28:24 10° 161° (SSE) 1,956 6.6 -6.8°
Sets 05:30:36 0° 164° (SSE) 2,851 7.4 -6.4°
